When you browse on this site, cookies collect data to enhance your experience and personalize the content and advertising you see.
Visit our Privacy Policy to learn more. By continuing to use the site, you agree to this use of cookies and data.
  • In Schweiz
  • Länderverzeichnis
  • Für 7 Tage
  • Wassertemperatur
  • Wetterkarte
  • Widgets
  • user-avatar
    Anmelden

    Stündliche Wetter Kurshevel

    Heute, 25 Mai, Montag

    Zeit Temperatur Niederschläge Wind Luftdruck Luftfeuchtigkeit
    00:00 +8°C° 0 mm 0 m/S 665 mmHg 82%
    01:00 +8°C° 0 mm 0 m/S 665 mmHg 82%
    02:00 +7°C° 0 mm 0 m/S 665 mmHg 82%
    03:00 +7°C° 0 mm 0 m/S 665 mmHg 82%
    04:00 +9°C° 0 mm 0 m/S 665 mmHg 77%
    05:00 +10°C° 0 mm 0 m/S 665 mmHg 71%
    06:00 +13°C° 0 mm 1 m/S 666 mmHg 66%
    07:00 +14°C° 0 mm 1 m/S 667 mmHg 61%
    08:00 +16°C° 0 mm 1 m/S 667 mmHg 56%
    09:00 +17°C° 0 mm 2 m/S 667 mmHg 51%
    10:00 +18°C° 0 mm 2 m/S 667 mmHg 49%
    11:00 +19°C° 0 mm 2 m/S 667 mmHg 48%
    12:00 +20°C° 0 mm 3 m/S 667 mmHg 47%
    13:00 +20°C° 0 mm 3 m/S 667 mmHg 48%
    14:00 +19°C° 0 mm 3 m/S 666 mmHg 50%
    15:00 +19°C° 0 mm 3 m/S 666 mmHg 52%
    16:00 +18°C° 0 mm 2 m/S 666 mmHg 60%
    17:00 +17°C° 0 mm 2 m/S 665 mmHg 67%
    18:00 +16°C° 0 mm 2 m/S 665 mmHg 75%
    19:00 +14°C° 0 mm 2 m/S 665 mmHg 81%
    20:00 +13°C° 0 mm 1 m/S 664 mmHg 87%
    21:00 +11°C° 0 mm 1 m/S 664 mmHg 93%
    22:00 +11°C° 0 mm 1 m/S 664 mmHg 92%
    23:00 +10°C° 0 mm 1 m/S 664 mmHg 92%

    Morgen, 26 Mai, Dienstag

    Zeit Temperatur Niederschläge Wind Luftdruck Luftfeuchtigkeit
    00:00 +10°C° 0 mm 1 m/S 664 mmHg 91%
    01:00 +10°C° 0 mm 1 m/S 664 mmHg 90%
    02:00 +8°C° 0 mm 0 m/S 664 mmHg 89%
    03:00 +8°C° 0 mm 0 m/S 663 mmHg 88%
    04:00 +10°C° 0 mm 0 m/S 664 mmHg 84%
    05:00 +11°C° 0 mm 0 m/S 664 mmHg 79%
    06:00 +13°C° 0 mm 0 m/S 665 mmHg 75%
    07:00 +15°C° 0 mm 1 m/S 665 mmHg 67%
    08:00 +18°C° 0 mm 1 m/S 666 mmHg 60%
    09:00 +18°C° 0 mm 2 m/S 667 mmHg 52%
    10:00 +19°C° 0 mm 2 m/S 667 mmHg 51%
    11:00 +20°C° 0 mm 2 m/S 667 mmHg 50%
    12:00 +20°C° 0 mm 3 m/S 667 mmHg 49%
    13:00 +20°C° 0 mm 3 m/S 666 mmHg 51%
    14:00 +19°C° 0 mm 3 m/S 666 mmHg 53%
    15:00 +19°C° 0 mm 3 m/S 666 mmHg 55%
    16:00 +18°C° 0 mm 2 m/S 666 mmHg 62%
    17:00 +17°C° 0 mm 2 m/S 665 mmHg 68%
    18:00 +15°C° 0 mm 2 m/S 665 mmHg 74%
    19:00 +14°C° 0 mm 1 m/S 665 mmHg 79%
    20:00 +13°C° 0 mm 1 m/S 665 mmHg 85%
    21:00 +10°C° 0 mm 0 m/S 665 mmHg 91%
    22:00 +10°C° 0 mm 0 m/S 665 mmHg 91%
    23:00 +11°C° 0 mm 1 m/S 665 mmHg 91%

    übermorgen, 27 Mai, Mittwoch

    Zeit Temperatur Niederschläge Wind Luftdruck Luftfeuchtigkeit
    00:00 +11°C° 0 mm 1 m/S 665 mmHg 91%
    01:00 +10°C° 0 mm 1 m/S 665 mmHg 91%
    02:00 +10°C° 0 mm 1 m/S 665 mmHg 91%
    03:00 +10°C° 0 mm 1 m/S 665 mmHg 91%
    04:00 +11°C° 0 mm 1 m/S 665 mmHg 88%
    05:00 +12°C° 0 mm 1 m/S 666 mmHg 85%
    06:00 +12°C° 0 mm 0 m/S 666 mmHg 82%
    07:00 +14°C° 0 mm 1 m/S 667 mmHg 77%
    08:00 +16°C° 0 mm 1 m/S 667 mmHg 73%
    09:00 +17°C° 0 mm 2 m/S 667 mmHg 68%
    10:00 +17°C° 0.2 mm 2 m/S 667 mmHg 69%
    11:00 +17°C° 0.2 mm 2 m/S 667 mmHg 70%
    12:00 +17°C° 0.2 mm 2 m/S 667 mmHg 71%
    13:00 +17°C° 0.3 mm 2 m/S 667 mmHg 73%
    14:00 +16°C° 0.3 mm 2 m/S 666 mmHg 76%
    15:00 +16°C° 0.3 mm 2 m/S 666 mmHg 79%
    16:00 +15°C° 0.3 mm 2 m/S 666 mmHg 82%
    17:00 +15°C° 0.3 mm 2 m/S 666 mmHg 85%
    18:00 +14°C° 0.3 mm 2 m/S 666 mmHg 88%
    19:00 +13°C° 0 mm 1 m/S 665 mmHg 90%
    20:00 +12°C° 0 mm 1 m/S 665 mmHg 92%
    21:00 +11°C° 0 mm 1 m/S 665 mmHg 95%
    22:00 +10°C° 0 mm 1 m/S 665 mmHg 94%
    23:00 +10°C° 0 mm 1 m/S 665 mmHg 93%

    28 Mai, Donnerstag

    Zeit Temperatur Niederschläge Wind Luftdruck Luftfeuchtigkeit
    00:00 +10°C° 0 mm 1 m/S 664 mmHg 92%
    01:00 +8°C° 0 mm 0 m/S 664 mmHg 92%
    02:00 +8°C° 0 mm 0 m/S 664 mmHg 91%
    03:00 +8°C° 0 mm 0 m/S 663 mmHg 91%
    04:00 +9°C° 0 mm 0 m/S 664 mmHg 87%
    05:00 +10°C° 0 mm 0 m/S 664 mmHg 84%
    06:00 +12°C° 0 mm 0 m/S 664 mmHg 80%
    07:00 +13°C° 0 mm 0 m/S 664 mmHg 74%
    08:00 +16°C° 0 mm 1 m/S 665 mmHg 67%
    09:00 +18°C° 0 mm 2 m/S 665 mmHg 61%
    10:00 +18°C° 0 mm 2 m/S 665 mmHg 57%
    11:00 +19°C° 0 mm 2 m/S 664 mmHg 54%
    12:00 +19°C° 0 mm 2 m/S 664 mmHg 50%
    13:00 +19°C° 0.1 mm 3 m/S 664 mmHg 50%
    14:00 +19°C° 0.1 mm 3 m/S 663 mmHg 50%
    15:00 +19°C° 0.1 mm 3 m/S 663 mmHg 50%
    16:00 +18°C° 0 mm 2 m/S 662 mmHg 55%
    17:00 +17°C° 0 mm 2 m/S 662 mmHg 61%
    18:00 +15°C° 0 mm 2 m/S 662 mmHg 66%
    19:00 +14°C° 0 mm 2 m/S 661 mmHg 71%
    20:00 +12°C° 0 mm 1 m/S 661 mmHg 77%
    21:00 +10°C° 0 mm 1 m/S 660 mmHg 83%
    22:00 +10°C° 0 mm 1 m/S 660 mmHg 83%
    23:00 +10°C° 0 mm 1 m/S 660 mmHg 84%

    29 Mai, Freitag

    Zeit Temperatur Niederschläge Wind Luftdruck Luftfeuchtigkeit
    00:00 +9°C° 0 mm 1 m/S 660 mmHg 85%
    01:00 +9°C° 0 mm 1 m/S 659 mmHg 85%
    02:00 +9°C° 0 mm 1 m/S 659 mmHg 85%
    03:00 +9°C° 0 mm 1 m/S 659 mmHg 85%
    04:00 +9°C° 0 mm 0 m/S 659 mmHg 80%
    05:00 +10°C° 0 mm 0 m/S 660 mmHg 76%
    06:00 +12°C° 0 mm 0 m/S 660 mmHg 71%
    07:00 +14°C° 0 mm 1 m/S 660 mmHg 65%
    08:00 +16°C° 0 mm 1 m/S 660 mmHg 60%
    09:00 +17°C° 0 mm 2 m/S 661 mmHg 54%
    10:00 +18°C° 0 mm 2 m/S 660 mmHg 53%
    11:00 +18°C° 0 mm 2 m/S 660 mmHg 52%
    12:00 +19°C° 0 mm 3 m/S 660 mmHg 51%
    13:00 +18°C° 0.2 mm 3 m/S 659 mmHg 53%
    14:00 +18°C° 0.2 mm 3 m/S 659 mmHg 56%
    15:00 +17°C° 0.2 mm 3 m/S 658 mmHg 58%
    16:00 +16°C° 0.1 mm 3 m/S 658 mmHg 63%
    17:00 +15°C° 0.1 mm 2 m/S 658 mmHg 69%
    18:00 +14°C° 0.1 mm 2 m/S 657 mmHg 74%
    19:00 +13°C° 0 mm 2 m/S 657 mmHg 81%
    20:00 +11°C° 0 mm 1 m/S 657 mmHg 88%
    21:00 +10°C° 0 mm 1 m/S 657 mmHg 94%
    22:00 +9°C° 0 mm 1 m/S 657 mmHg 94%
    23:00 +9°C° 0 mm 1 m/S 656 mmHg 94%

    30 Mai, Samstag

    Zeit Temperatur Niederschläge Wind Luftdruck Luftfeuchtigkeit
    00:00 +9°C° 0 mm 1 m/S 656 mmHg 94%
    01:00 +8°C° 0 mm 1 m/S 656 mmHg 94%
    02:00 +8°C° 0 mm 1 m/S 656 mmHg 94%
    03:00 +8°C° 0 mm 1 m/S 656 mmHg 93%
    04:00 +9°C° 0 mm 1 m/S 656 mmHg 88%
    05:00 +10°C° 0 mm 1 m/S 656 mmHg 82%
    06:00 +11°C° 0 mm 1 m/S 657 mmHg 77%
    07:00 +13°C° 0 mm 1 m/S 657 mmHg 68%
    08:00 +14°C° 0 mm 1 m/S 657 mmHg 58%
    09:00 +16°C° 0 mm 2 m/S 658 mmHg 49%
    10:00 +17°C° 0 mm 2 m/S 658 mmHg 47%
    11:00 +18°C° 0 mm 2 m/S 658 mmHg 45%
    12:00 +19°C° 0 mm 2 m/S 659 mmHg 43%
    13:00 +19°C° 0.1 mm 2 m/S 658 mmHg 47%
    14:00 +18°C° 0.1 mm 2 m/S 658 mmHg 52%
    15:00 +18°C° 0.1 mm 2 m/S 658 mmHg 56%
    16:00 +17°C° 0.2 mm 2 m/S 658 mmHg 62%
    17:00 +16°C° 0.2 mm 2 m/S 658 mmHg 67%
    18:00 +14°C° 0.2 mm 1 m/S 658 mmHg 73%
    19:00 +13°C° 0 mm 1 m/S 658 mmHg 78%
    20:00 +12°C° 0 mm 1 m/S 658 mmHg 83%
    21:00 +9°C° 0 mm 0 m/S 658 mmHg 88%
    22:00 +9°C° 0 mm 0 m/S 658 mmHg 89%
    23:00 +8°C° 0 mm 0 m/S 658 mmHg 89%
    Mehr zeigen